Temperature
18 18 18 18 18 19 20 22 24 23 24 23 23 23 22 20 20 17 16 16 16 16 16 16 16 16 15 15 15 15 15 15 15 15 15 15 15 15 15 15 15 15 14 14 14 14 14 14 14
17 17 18 18 18 19 21 22 23 23 22 22 22 22 22 19 17 17 16 16 16 16 16 16 16 15 15 15 15 15 15 15 15 15 15 15 15 15 15 15 14 14 14 14 14 14 14 14 14
17 17 18 19 19 20 21 22 22 22 22 22 22 21 20 18 17 16 16 16 15 15 15 15 15 15 15 15 15 15 15 14 15 15 15 14 14 14 14 14 14 14 14 14 14 14 14 14 14
17 17 19 18 19 20 21 22 22 22 22 22 21 20 18 17 16 16 15 15 15 15 15 15 15 15 15 15 14 14 14 14 14 14 14 14 14 14 14 14 14 14 14 14 14 14 14 14 14
17 18 18 18 19 21 22 22 22 22 22 21 21 19 16 16 16 16 15 15 15 14 15 15 15 15 14 14 14 14 14 14 14 14 14 14 14 14 14 14 14 14 14 14 14 14 14 14 14
17 19 18 18 19 21 21 22 22 21 21 21 20 19 16 15 16 15 15 15 15 14 14 15 14 14 14 14 14 14 14 14 14 14 14 14 14 14 13 13 13 13 13 13 13 13 14 14 14
17 17 17 18 19 20 21 21 21 20 20 20 20 19 16 15 15 15 15 15 14 14 14 14 14 14 14 14 14 14 14 14 14 14 14 13 13 13 13 13 13 13 13 13 13 13 13 13 13
16 17 18 18 19 19 20 20 19 19 19 19 19 18 16 15 15 15 14 14 14 14 14 14 14 14 14 14 13 14 13 13 13 13 13 13 13 13 13 13 13 13 13 13 13 13 13 13 13
16 16 16 18 18 19 19 19 18 18 18 17 17 16 15 15 14 14 14 14 14 14 13 13 13 13 13 13 13 13 13 13 13 13 13 13 13 13 13 13 13 13 13 13 13 12 12 12 12
16 15 16 17 17 17 18 18 18 18 17 17 16 15 15 14 14 14 14 14 14 13 13 13 13 13 13 13 13 13 13 13 13 13 13 13 12 12 12 12 12 12 12 12 12 12 12 12 12
15 15 16 17 16 16 16 16 17 17 16 16 15 15 14 14 13 13 13 13 13 13 13 13 13 13 13 13 13 13 13 13 12 12 12 12 12 12 12 12 12 12 12 12 12 12 12 11 11
15 15 16 15 15 15 15 15 15 16 15 15 15 15 14 13 13 13 13 12 12 12 12 12 12 12 12 12 12 12 12 12 12 12 12 12 12 12 11 11 11 11 11 11 11 11 11 11 11
15 14 15 14 14 14 14 14 14 14 14 14 14 14 14 13 13 13 12 12 12 12 12 12 12 12 12 12 12 12 12 12 12 12 12 12 12 11 11 11 11 11 11 11 11 11 11 10 10
14 14 14 14 14 14 14 13 14 14 14 14 14 14 13 13 13 12 12 12 12 12 12 12 12 12 12 12 12 12 12 12 12 12 11 11 11 11 11 11 11 11 10 10 10 10 10 10 10
14 13 13 14 14 14 13 12 13 14 14 14 13 13 13 13 13 12 12 12 12 11 11 12 12 12 12 12 11 12 11 11 11 11 11 11 11 11 11 11 10 10 10 10 10 10 10 9 9
14 13 12 13 14 13 12 12 13 14 13 13 13 13 13 13 13 12 12 11 11 11 11 11 11 11 11 11 11 11 11 11 11 11 11 11 10 10 10 10 10 10 10 10 10 10 9 9 9
12 12 12 13 13 13 12 12 13 14 13 13 13 13 12 12 12 12 11 11 11 11 11 11 11 11 11 11 11 11 11 11 11 11 10 10 10 10 10 10 10 10 9 9 9 9 9 9 8
12 12 13 13 13 13 12 12 12 13 13 13 13 12 12 11 11 11 11 11 10 10 10 10 10 10 10 10 10 10 10 10 10 10 10 10 10 10 10 10 10 9 9 9 9 8 8 8 8
12 12 12 13 12 12 12 12 12 12 12 12 12 12 11 11 10 10 10 10 10 10 10 10 10 10 10 10 10 10 10 10 10 10 9 9 9 9 9 9 9 9 9 8 8 8 8 8 7
12 11 11 11 12 12 11 11 12 12 11 12 12 11 11 10 10 10 9 9 9 9 9 9 10 10 10 10 10 9 9 9 9 9 9 9 9 9 9 8 8 8 8 8 8 7 7 7 7
11 10 11 10 11 11 11 10 11 11 12 12 11 11 10 10 9 9 9 8 8 9 9 9 9 9 9 9 9 9 8 8 8 8 8 8 8 8 8 8 8 8 8 7 7 7 7 7 6
10 11 10 10 9 8 10 8 10 11 10 11 11 11 10 9 9 8 8 8 8 8 8 8 8 8 8 8 8 8 8 8 8 8 8 8 8 8 7 7 7 7 7 7 6 6 6 6 6
9 10 10 9 9 8 9 8 9 11 10 10 10 10 9 9 8 8 7 7 7 7 7 8 8 8 8 8 8 8 7 7 7 7 7 7 7 7 7 7 7 7 6 6 6 6 6 6 5
9 9 9 9 8 6 8 8 8 9 10 10 10 9 9 8 7 7 7 7 7 7 7 7 7 7 7 7 7 7 7 7 7 7 7 7 7 6 6 6 6 6 6 6 6 5 5 5 5
8 7 6 6 6 7 9 8 8 10 10 10 9 9 8 8 7 6 6 6 6 6 6 6 6 6 6 6 6 6 6 6 6 6 6 6 6 6 6 6 6 5 5 5 5 5 5 5 5
7 7 6 6 7 8 8 8 9 10 10 10 10 9 8 7 7 6 6 6 6 6 5 6 6 6 6 6 6 6 6 6 6 5 5 5 5 5 5 5 5 5 5 5 4 4 4 4 4
7 7 8 7 6 6 7 9 9 9 9 8 9 8 7 7 6 6 5 5 5 5 5 5 5 5 5 5 5 5 5 5 5 5 5 5 5 5 4 4 4 4 4 4 4 4 4 4 4
7 7 6 5 5 6 8 8 8 7 7 7 7 7 7 7 6 5 5 5 5 5 5 4 4 5 5 4 4 4 4 4 4 4 4 4 4 4 4 4 4 4 4 4 4 3 3 3 3
6 6 6 5 5 6 7 8 8 7 7 7 7 7 7 6 6 5 5 5 4 4 4 4 4 4 4 4 4 4 4 4 4 4 4 4 3 3 3 3 3 3 3 3 3 3 3 3 3
5 6 5 4 4 5 5 6 7 7 7 7 7 7 6 5 5 5 4 4 4 4 4 3 3 3 3 3 3 3 3 3 3 3 3 3 3 3 3 3 3 3 3 3 3 3 2 2 2
Wind_Speed
13 12 7 3 3 4 6 4 2 2 2 5 6 4 4 7 6 6 3 4 8 9 11 11 11 11 10 10 10 10 9 9 9 9 9 10 10 10 10 10 10 10 11 11 12 12 12 12 12
11 8 4 3 4 5 5 4 1 2 5 4 3 2 3 7 8 7 3 5 8 10 11 11 11 11 10 10 10 9 8 8 9 9 9 9 9 9 9 9 9 10 10 11 11 11 11 11 11
9 7 3 3 4 6 3 1 4 6 5 2 2 3 4 6 6 5 5 5 8 9 11 12 12 11 10 10 10 9 8 8 8 8 8 8 8 8 9 9 9 10 10 10 10 10 9 9 9
5 3 4 4 7 6 3 1 4 5 3 2 1 5 5 6 4 6 6 6 9 9 12 13 12 11 11 10 9 9 8 8 8 8 8 8 8 8 9 9 9 9 9 9 9 9 9 8 8
4 4 4 6 9 6 2 3 3 1 3 3 1 3 5 4 8 8 5 6 8 9 11 12 12 11 11 11 10 9 9 8 8 8 8 8 8 9 9 9 9 9 8 8 8 8 8 8 7
3 3 5 7 8 6 2 1 1 2 0 3 2 2 5 5 6 5 5 6 8 9 10 11 11 10 10 10 10 10 9 9 8 7 7 8 8 8 8 9 8 8 7 7 7 6 7 7 6
3 3 5 7 6 4 0 2 1 2 1 2 1 2 6 5 5 4 5 6 7 8 9 9 9 9 9 10 10 9 9 9 8 7 7 7 7 7 7 7 7 7 6 6 6 5 5 5 5
4 3 5 7 6 2 2 2 2 4 3 4 3 1 4 5 4 4 5 6 7 7 7 7 7 7 7 8 8 9 8 8 7 7 6 6 6 6 6 6 6 6 5 5 4 4 4 3 3
3 3 4 4 4 1 3 1 2 2 2 2 5 6 7 8 5 5 5 5 5 6 5 5 5 5 6 7 8 8 8 7 7 6 5 5 4 4 4 5 5 4 4 3 3 3 3 2 2
2 3 4 3 4 4 4 3 2 0 1 1 4 7 9 7 5 4 4 4 4 4 4 4 4 4 5 5 7 6 6 6 5 4 4 4 3 3 4 4 4 4 3 2 2 1 1 1 1
2 3 2 3 5 5 4 4 3 2 1 1 2 5 7 6 5 4 3 3 4 4 3 3 4 4 4 4 5 4 4 4 3 4 3 3 3 3 4 3 4 3 2 2 1 1 1 2 1
3 3 3 2 3 3 3 3 3 3 2 3 3 3 6 6 5 4 3 3 4 4 4 3 3 4 4 4 3 3 3 3 3 3 3 3 3 3 2 2 2 2 1 1 1 1 1 2 2
5 4 3 2 1 1 2 3 3 3 2 2 2 2 4 5 4 3 3 3 4 4 4 3 3 3 3 4 3 3 3 4 4 4 3 4 3 2 2 2 2 2 2 1 1 2 2 2 2
2 2 3 3 3 2 3 4 3 4 1 1 1 2 3 5 5 4 3 3 4 5 4 4 3 4 4 4 3 3 3 4 4 4 4 4 3 2 2 2 2 2 2 2 2 2 2 2 2
2 3 4 5 5 3 2 6 6 4 2 3 2 2 2 3 5 5 4 4 4 5 5 4 4 4 4 4 3 3 4 4 3 3 4 3 3 2 2 1 1 2 2 2 3 3 2 2 2
4 4 4 4 5 4 4 7 5 3 3 4 3 2 2 2 2 3 4 4 4 5 5 4 4 4 4 4 3 3 4 4 4 4 4 3 3 3 3 2 1 2 2 2 1 1 1 1 1
5 5 6 4 5 5 6 6 3 3 3 4 3 3 2 2 2 2 4 5 5 5 5 4 4 4 4 4 4 4 4 4 4 4 3 3 3 2 2 2 2 2 2 1 1 1 1 1 2
5 6 6 5 4 5 7 7 3 2 2 3 3 2 3 2 2 3 4 4 4 5 5 5 4 4 4 3 3 3 3 3 4 4 3 3 3 3 2 2 2 2 1 1 1 1 1 1 2
6 6 6 4 1 4 7 8 6 4 4 4 3 3 2 2 2 4 4 4 4 4 4 4 4 3 3 3 2 2 1 1 2 3 4 3 3 3 2 2 2 2 0 0 0 0 1 1 1
7 7 6 3 1 4 6 8 6 6 5 5 4 4 4 3 3 3 4 3 3 3 3 3 3 3 3 2 2 2 2 1 1 2 3 3 3 3 2 2 1 1 1 1 1 0 0 1 1
6 5 5 4 4 5 5 7 6 5 5 5 4 4 4 4 4 4 4 3 3 2 2 2 2 3 3 3 3 2 2 2 2 1 1 1 2 2 2 2 1 1 1 1 1 0 0 1 1
6 3 4 3 3 4 4 5 6 7 7 7 6 5 4 4 4 4 4 3 3 2 2 2 2 2 2 3 3 3 2 2 1 1 1 1 1 1 1 2 1 1 1 1 1 1 1 1 1
2 2 3 4 4 5 5 5 5 5 6 7 6 5 5 5 4 4 3 3 3 3 3 2 2 2 2 2 2 3 2 1 1 1 1 1 1 1 1 1 1 1 1 1 1 1 2 2 2
1 1 2 3 2 6 8 7 5 5 7 6 7 6 5 5 5 4 4 4 3 3 3 2 2 2 2 2 1 2 2 2 2 1 1 1 1 0 0 1 2 2 1 1 1 2 2 2 2
2 1 0 2 4 6 5 6 6 3 2 4 6 7 6 5 5 5 5 4 3 3 3 2 2 1 2 2 1 1 1 2 2 2 2 1 1 0 0 1 1 2 2 2 1 2 2 2 2
5 4 3 4 4 3 4 7 3 3 2 3 4 6 6 6 5 5 4 4 3 3 3 2 2 1 1 1 1 1 1 1 1 1 1 1 1 0 0 1 1 2 2 2 2 1 2 1 2
3 5 3 2 3 4 5 4 2 3 3 2 3 5 6 6 5 5 4 4 3 3 2 2 2 1 1 1 1 1 1 1 0 0 0 0 0 0 0 0 1 1 1 1 1 1 1 1 2
3 2 2 3 3 5 6 7 5 5 5 4 4 4 5 5 5 4 4 4 3 2 2 2 2 1 1 1 1 2 1 1 1 0 0 0 0 0 0 0 1 1 1 1 1 1 1 1 2
5 4 3 3 4 3 5 3 1 3 4 4 3 3 4 4 4 3 3 3 3 3 3 2 2 1 1 2 2 2 1 2 2 1 0 1 1 0 1 1 1 1 1 1 1 1 1 2 2
4 5 5 4 5 4 5 5 1 2 2 3 2 2 3 3 3 3 3 3 3 3 3 2 2 1 1 1 1 1 1 1 1 1 1 1 1 1 1 1 1 1 1 1 1 2 1 2 2
Wind_Direction
301 276 255 256 243 230 242 246 253 64 63 47 37 15 36 44 46 101 147 88 97 110 122 130 126 127 128 127 122 116 112 108 102 98 95 92 90 86 84 82 80 78 76 76 74 72 70 69 67
291 279 260 238 241 236 232 224 222 67 75 66 49 7 65 77 78 101 108 86 100 110 120 126 123 124 124 126 125 120 115 111 105 101 99 96 93 90 86 84 81 79 77 76 74 73 71 69 67
277 262 253 235 239 246 260 85 98 85 88 99 115 39 44 71 85 102 104 106 99 102 109 117 121 120 120 121 123 120 117 111 106 104 102 97 95 91 86 83 83 81 78 75 73 71 71 71 68
271 236 240 244 246 254 270 339 66 103 96 72 85 95 78 46 62 92 106 109 101 98 101 111 119 117 116 115 115 116 115 111 105 102 102 98 95 92 86 83 85 83 80 76 72 70 70 69 65
247 241 226 232 244 259 302 13 42 115 159 148 101 94 92 57 72 94 108 106 104 99 101 111 111 116 115 113 110 109 111 110 106 102 102 100 97 93 89 85 85 83 81 78 74 70 68 65 60
254 242 233 231 233 228 228 4 338 289 107 105 105 101 101 86 77 90 102 96 97 102 102 111 112 109 114 114 113 109 105 105 104 102 99 99 97 94 89 83 82 81 80 79 75 70 66 62 54
266 259 252 252 248 227 200 70 8 320 9 65 36 102 119 103 92 99 100 96 92 94 100 107 114 111 107 114 115 111 107 104 104 103 100 100 99 96 90 82 80 79 79 77 73 70 65 60 50
301 281 246 249 257 257 52 51 24 4 5 30 16 65 120 121 114 107 97 92 93 92 97 102 113 115 113 109 116 116 113 111 109 105 103 104 101 98 96 88 86 84 81 78 70 65 60 52 40
293 259 253 262 272 331 61 56 59 39 24 37 52 56 90 114 113 102 97 87 92 96 95 99 104 113 119 123 118 121 120 118 117 114 117 120 115 109 107 100 99 90 80 76 65 56 47 33 20
238 240 255 328 358 9 27 22 30 165 146 56 81 87 103 116 127 127 123 122 111 101 92 88 95 100 110 121 119 121 128 126 125 123 131 130 116 109 107 109 115 100 87 77 56 42 24 358 346
211 244 279 353 25 22 11 357 350 306 285 350 102 125 129 134 144 149 149 144 126 116 103 88 86 86 94 97 110 111 123 125 117 117 127 119 106 98 89 94 102 104 99 81 43 17 323 319 342
228 268 282 318 27 12 343 331 324 307 328 17 39 99 134 151 160 162 170 152 128 125 121 102 89 92 90 96 98 101 102 104 93 90 103 88 74 69 71 76 86 93 89 54 38 317 306 330 335
228 245 245 254 321 311 313 290 293 277 318 358 47 106 150 163 161 164 164 148 134 124 109 101 83 94 94 86 91 92 80 88 92 80 67 67 68 67 62 52 56 52 50 35 352 331 342 342 346
231 244 239 229 226 246 256 264 254 246 239 265 208 195 179 171 166 172 168 154 138 129 119 105 88 71 80 80 75 80 85 81 83 81 72 65 66 64 64 54 46 33 31 13 353 343 344 343 356
233 242 240 222 221 200 245 258 228 225 220 227 222 214 189 188 170 171 160 146 132 128 124 120 111 86 83 81 79 79 92 93 78 74 73 73 75 66 62 58 50 32 27 9 356 351 356 351 354
228 226 226 199 203 197 216 252 230 182 199 221 217 216 190 180 165 149 139 132 129 126 121 119 113 102 90 80 74 68 73 87 81 74 69 62 61 61 57 47 50 44 34 19 357 357 360 341 336
215 233 232 216 195 194 216 248 239 184 207 226 218 201 193 168 135 127 131 133 135 131 125 121 122 117 104 91 77 69 64 68 74 73 69 61 46 52 60 43 36 50 38 21 349 352 352 335 319
223 238 242 225 190 217 229 240 221 225 239 241 230 183 182 180 159 116 108 114 124 128 133 134 125 114 109 100 86 71 65 56 67 68 62 63 55 43 43 47 40 39 48 34 17 348 358 351 320
273 267 268 277 294 256 245 244 229 219 233 236 214 182 181 161 121 111 113 113 108 115 128 131 127 119 114 111 114 109 97 64 61 62 54 52 52 43 45 33 36 32 49 187 271 330 355 332 339
264 268 271 296 304 272 270 259 239 222 220 224 214 200 185 161 138 120 116 117 116 120 117 122 132 134 131 131 132 130 127 121 93 68 60 51 47 37 31 32 25 9 355 341 311 5 17 329 21
250 258 269 281 303 272 286 276 234 222 211 214 218 207 185 169 158 143 127 120 120 121 131 129 126 128 126 125 121 106 99 89 86 81 80 54 49 47 28 11 20 355 337 260 284 282 209 242 279
249 261 272 272 266 259 221 273 238 207 211 208 203 199 181 161 138 133 131 130 128 122 100 97 103 102 111 125 132 138 142 161 187 168 150 99 78 54 30 344 349 325 312 270 271 272 263 213 242
269 303 267 259 259 276 236 248 264 197 217 211 195 181 161 151 145 135 125 122 113 106 96 91 95 98 91 109 137 146 153 167 150 126 125 133 115 92 17 327 330 322 312 289 279 271 260 236 222
271 293 281 260 256 256 221 219 263 210 214 197 183 173 160 149 145 138 124 111 102 94 91 85 81 89 86 80 89 142 163 159 141 140 164 190 179 220 6 336 337 327 311 289 278 264 259 250 241
215 150 185 224 226 242 203 214 240 218 175 166 168 168 159 149 150 144 131 128 125 119 110 104 101 82 84 89 80 91 161 161 174 187 185 190 203 216 287 337 325 317 309 299 280 256 259 258 250
212 203 195 219 235 254 217 224 226 149 104 101 134 150 151 152 146 137 137 137 133 127 128 128 118 112 100 93 85 73 74 129 183 203 200 192 204 208 302 328 326 332 335 323 316 287 262 263 263
210 224 254 280 281 279 244 229 229 157 139 133 133 139 152 152 139 134 135 132 130 130 134 130 122 112 96 77 69 61 50 46 52 359 5 73 233 321 14 333 320 326 318 313 315 289 278 271 263
238 245 178 200 228 252 250 233 223 193 191 181 170 168 165 151 141 138 139 135 125 121 112 102 104 107 94 75 61 50 31 12 358 321 6 314 299 344 239 260 290 291 284 289 296 281 281 267 264
202 215 214 219 239 237 262 255 1 153 163 163 165 165 151 146 142 139 134 120 111 104 111 112 111 92 76 65 54 50 29 20 13 6 15 355 325 291 246 234 237 250 251 263 240 242 253 249 261
228 217 194 206 245 239 261 266 337 81 118 141 139 126 121 125 125 127 122 115 108 102 105 116 114 103 87 72 55 34 33 32 20 1 348 333 334 331 295 279 246 250 262 270 260 257 256 246 251
Height
1498 1498 1500 1503 1504 1505 1501 1490 1484 1484 1486 1489 1490 1491 1493 1498 1503 1513 1513 1512 1511 1512 1513 1515 1517 1518 1520 1521 1523 1524 1525 1526 1527 1528 1528 1529 1530 1530 1530 1531 1531 1531 1532 1532 1533 1533 1533 1533 1534
1497 1499 1502 1502 1503 1506 1498 1488 1486 1486 1488 1490 1492 1494 1495 1501 1505 1508 1510 1511 1511 1512 1513 1515 1517 1518 1520 1521 1523 1524 1525 1526 1527 1528 1529 1530 1530 1531 1531 1532 1532 1532 1533 1533 1534 1534 1534 1534 1535
1498 1499 1502 1499 1500 1500 1494 1486 1486 1487 1490 1492 1494 1496 1499 1504 1507 1508 1510 1511 1512 1512 1514 1515 1517 1519 1520 1521 1523 1524 1525 1527 1528 1528 1529 1530 1531 1531 1532 1532 1533 1533 1534 1534 1534 1535 1535 1535 1536
1498 1500 1500 1500 1499 1492 1489 1487 1487 1489 1491 1493 1495 1498 1502 1506 1508 1508 1510 1511 1512 1513 1514 1515 1517 1519 1520 1522 1523 1524 1525 1527 1528 1529 1530 1530 1531 1532 1532 1533 1533 1534 1534 1535 1535 1535 1535 1536 1536
1499 1499 1499 1500 1496 1490 1486 1487 1489 1490 1492 1494 1495 1499 1504 1507 1508 1509 1510 1511 1512 1513 1514 1515 1517 1519 1520 1521 1523 1524 1525 1526 1528 1529 1530 1530 1531 1532 1533 1533 1534 1534 1535 1535 1535 1536 1536 1536 1536
1499 1496 1499 1500 1494 1488 1487 1489 1490 1491 1492 1494 1496 1500 1506 1507 1507 1509 1510 1512 1513 1513 1514 1515 1517 1518 1520 1521 1523 1524 1525 1526 1527 1528 1529 1530 1531 1532 1533 1533 1534 1534 1535 1535 1535 1536 1536 1536 1536
1498 1496 1497 1494 1492 1489 1488 1490 1492 1493 1493 1496 1497 1500 1505 1507 1508 1509 1510 1512 1513 1513 1514 1515 1516 1518 1519 1521 1522 1524 1525 1526 1527 1528 1529 1530 1531 1531 1532 1533 1534 1534 1535 1535 1535 1536 1536 1536 1536
1496 1496 1494 1492 1492 1491 1490 1492 1494 1495 1496 1497 1498 1501 1504 1506 1507 1509 1510 1512 1512 1513 1514 1515 1516 1517 1519 1520 1522 1523 1524 1526 1527 1528 1529 1530 1530 1531 1532 1532 1533 1534 1534 1535 1535 1536 1536 1536 1536
1496 1499 1497 1493 1492 1491 1491 1493 1495 1497 1498 1499 1500 1502 1503 1505 1507 1508 1510 1511 1512 1513 1514 1515 1516 1517 1518 1520 1521 1522 1524 1525 1526 1527 1528 1529 1530 1530 1531 1532 1533 1533 1534 1534 1534 1535 1535 1535 1535
1496 1499 1496 1493 1492 1492 1493 1494 1496 1498 1498 1500 1501 1503 1503 1505 1506 1508 1509 1510 1511 1512 1513 1514 1516 1516 1518 1519 1520 1521 1523 1524 1525 1526 1527 1528 1529 1529 1530 1531 1532 1532 1533 1533 1533 1534 1534 1534 1534
1495 1496 1494 1494 1494 1495 1496 1497 1498 1498 1500 1501 1502 1503 1503 1504 1506 1507 1508 1510 1510 1511 1512 1513 1515 1516 1517 1518 1519 1520 1522 1523 1524 1525 1526 1527 1528 1528 1529 1530 1530 1531 1531 1532 1532 1532 1532 1533 1533
1495 1495 1495 1496 1497 1497 1498 1499 1499 1499 1500 1501 1501 1502 1502 1503 1505 1506 1507 1509 1509 1510 1511 1512 1514 1515 1516 1517 1518 1519 1520 1522 1523 1524 1525 1526 1527 1527 1528 1528 1528 1529 1530 1530 1531 1531 1531 1531 1532
1494 1495 1495 1497 1497 1498 1499 1500 1500 1500 1500 1500 1501 1501 1502 1503 1504 1505 1507 1508 1508 1509 1510 1511 1512 1513 1514 1516 1517 1518 1519 1520 1521 1523 1523 1524 1525 1526 1526 1527 1527 1527 1528 1528 1529 1529 1529 1530 1530
1493 1494 1495 1496 1497 1498 1499 1499 1500 1498 1499 1499 1500 1501 1501 1502 1503 1504 1505 1506 1507 1508 1509 1509 1511 1512 1513 1514 1515 1516 1518 1519 1520 1521 1522 1523 1523 1524 1524 1525 1525 1526 1526 1526 1527 1527 1528 1528 1528
1494 1495 1495 1495 1495 1497 1499 1499 1497 1496 1497 1498 1499 1500 1500 1501 1502 1503 1504 1505 1506 1507 1507 1508 1509 1510 1511 1513 1514 1515 1516 1518 1519 1519 1520 1521 1522 1522 1523 1523 1524 1524 1524 1524 1525 1525 1525 1525 1526
1493 1495 1496 1493 1493 1495 1501 1499 1494 1494 1496 1496 1497 1498 1499 1500 1500 1501 1502 1503 1504 1505 1506 1507 1508 1509 1510 1511 1512 1513 1514 1516 1517 1517 1518 1520 1520 1520 1521 1521 1521 1522 1522 1522 1522 1522 1522 1523 1523
1494 1496 1494 1493 1491 1492 1496 1495 1492 1492 1493 1494 1495 1496 1497 1498 1499 1499 1500 1501 1503 1503 1504 1505 1507 1508 1509 1510 1511 1511 1513 1514 1515 1516 1517 1517 1518 1518 1518 1519 1519 1519 1519 1520 1520 1520 1520 1520 1520
1494 1492 1489 1490 1489 1490 1492 1492 1491 1491 1491 1492 1493 1494 1495 1496 1497 1498 1498 1499 1501 1502 1503 1504 1505 1506 1507 1508 1509 1510 1511 1512 1513 1514 1514 1515 1515 1516 1516 1516 1516 1517 1517 1517 1517 1517 1517 1518 1518
1488 1489 1489 1488 1488 1490 1490 1489 1488 1489 1490 1490 1491 1492 1493 1494 1496 1496 1497 1497 1498 1500 1501 1502 1503 1504 1505 1506 1507 1508 1509 1510 1510 1511 1512 1513 1513 1513 1513 1513 1514 1514 1514 1514 1515 1515 1515 1515 1516
1488 1490 1490 1490 1489 1490 1489 1487 1485 1486 1486 1487 1488 1490 1491 1492 1493 1494 1495 1495 1496 1498 1499 1500 1501 1502 1503 1504 1505 1506 1507 1507 1508 1509 1510 1510 1511 1511 1511 1511 1511 1511 1511 1511 1512 1512 1512 1512 1513
1489 1491 1491 1492 1491 1489 1490 1488 1483 1482 1483 1485 1486 1487 1488 1489 1490 1492 1493 1493 1495 1496 1497 1498 1499 1500 1501 1502 1503 1504 1504 1505 1506 1506 1507 1508 1508 1509 1509 1509 1508 1509 1509 1509 1509 1509 1510 1510 1511
1491 1489 1490 1492 1496 1497 1492 1497 1481 1479 1480 1481 1482 1484 1485 1487 1488 1490 1491 1492 1493 1494 1495 1496 1497 1497 1499 1499 1500 1500 1501 1502 1503 1503 1504 1505 1506 1506 1506 1506 1506 1506 1506 1506 1506 1506 1507 1507 1507
1490 1488 1490 1492 1494 1497 1492 1497 1485 1476 1478 1478 1478 1481 1483 1485 1486 1487 1488 1489 1491 1492 1493 1493 1494 1495 1496 1496 1497 1498 1498 1499 1500 1501 1501 1502 1503 1503 1503 1503 1503 1503 1503 1502 1503 1503 1504 1504 1504
1489 1490 1491 1492 1496 1503 1490 1493 1484 1476 1472 1472 1475 1478 1480 1483 1484 1486 1487 1488 1488 1489 1490 1491 1492 1492 1493 1494 1495 1495 1496 1496 1497 1497 1498 1499 1499 1500 1500 1500 1499 1500 1500 1499 1499 1500 1500 1501 1501
1491 1497 1503 1503 1505 1497 1481 1485 1479 1469 1466 1468 1471 1475 1478 1480 1482 1484 1485 1485 1486 1487 1487 1488 1489 1490 1491 1491 1492 1492 1493 1493 1494 1494 1495 1495 1496 1496 1496 1496 1496 1496 1496 1496 1496 1496 1497 1497 1497
1491 1493 1501 1502 1496 1486 1481 1482 1472 1466 1466 1467 1469 1472 1475 1478 1480 1481 1483 1484 1484 1485 1485 1486 1486 1487 1488 1488 1489 1490 1490 1491 1491 1492 1492 1492 1492 1492 1493 1493 1493 1493 1493 1493 1493 1493 1493 1493 1493
1490 1491 1489 1494 1494 1495 1482 1472 1469 1466 1467 1468 1469 1471 1473 1476 1478 1479 1481 1482 1482 1483 1483 1484 1484 1484 1485 1486 1486 1487 1487 1488 1488 1488 1489 1489 1489 1489 1490 1490 1490 1489 1489 1490 1489 1489 1490 1490 1490
1489 1488 1493 1497 1497 1491 1475 1470 1470 1468 1468 1468 1469 1470 1472 1475 1476 1478 1479 1480 1480 1481 1481 1482 1482 1483 1483 1483 1483 1484 1484 1484 1485 1485 1486 1486 1486 1486 1486 1486 1486 1486 1486 1486 1486 1486 1486 1486 1486
1489 1490 1490 1492 1490 1490 1482 1473 1464 1464 1464 1466 1468 1469 1471 1473 1475 1476 1477 1478 1479 1479 1479 1480 1480 1480 1481 1481 1481 1481 1481 1481 1482 1482 1482 1483 1483 1483 1483 1483 1483 1483 1483 1483 1483 1483 1483 1483 1483
1485 1485 1489 1496 1493 1487 1485 1477 1463 1463 1464 1465 1467 1469 1471 1473 1474 1475 1475 1476 1477 1477 1477 1478 1478 1478 1479 1479 1479 1479 1479 1479 1479 1479 1479 1480 1480 1480 1480 1480 1480 1480 1479 1479 1479 1479 1479 1479 1479